Location: Prairie Dale
(45.6972°N, 104.5033°W)
Time: 16:08:59
(UTC+00:00)

ESTCUBE 1 - Pass Details

Date: 28 June 2022
Orbit: 646 x 657 km, 97.9° (Epoch: 07 August)

Event Time Altitude Azimuth Distance (km) Brightness Sun altitude
Exits shadow 05:32:49 26° 204° (SSW) 1,271 ? -18.2°
Maximum altitude 05:34:55 45° 261° (W) 889 ? -18.3°
Drops below altitude 10° 05:39:13 10° 335° (NNW) 2,057 ? -18.5°
Sets 05:41:32 0° 341° (NNW) 2,974 ? -18.7°
